Location: Autingues
(50.8400°N, 1.9737°E)
Time: 13:46:57
(UTC+00:00)

NOSS 3-3 (C) - Pass Details

Date: 15 May 2026
Orbit: 697 x 1516 km, 63.4° (Epoch: 11 January)

Event Time Altitude Azimuth Distance (km) Brightness Sun altitude
Rises 20:28:54 0° 213° (SSW) 3,164 6.6 -7.6°
Reaches altitude 10° 20:31:06 10° 212° (SSW) 2,303 5.9 -7.8°
Maximum altitude 20:36:19 72° 129° (SE) 904 3.7 -8.4°
Drops below altitude 10° 20:42:38 10° 46° (NE) 2,767 6.4 -9.1°
Sets 20:45:30 0° 45° (NE) 3,854 7.2 -9.4°
